COSMOS 1275 DEB, 42099

Orbit data source: Space-Track

COSMOS 1275 DEB, 42099 is space debris in LEO originally from a launch on Thu, 04 Jun 1981 UTC launched from the Plesetsk Missile And Space Complex (PKMTR). Debris objects in space refer to the collection of defunct objects orbiting the Earth. Examples of debris include non-operational satellites, rocket bodies, and fragments generated from explosions, collisions, or faulty payload assembly.

Loading next visibility...
Identifier
42099, 1981-053PK
Orbit
LEO
Country
Flag of CISCIS
Related business
Manufacturer
Unknown
Mission
Spacecraft
Bus & Motor
Unknown
Mass
Unknown
Launch date (UTC)
1981-06-04 (45 years ago)
Launch vehicle
Unknown
Launch site
Plesetsk Missile And Space Complex (PKMTR)
Object type
Payload
Rocket body
Debris
Shape & HBR
Unknown shape, 0.1 m
Radar Cross Section
Small (<0.1 m²)

Expand to show TLE details & history
Last TLE update: 1 week ago

TLE from 1 week ago
0 COSMOS 1275 DEB
1 42099U 81053PK  26152.98683774  .00005772  00000-0  20611-2 0  9992
2 42099  82.8516  43.5309 0029464  64.4207 296.0021 14.33774741534304
Epoch: 2026-06-01T23:41Z
TLE epoch observation values (Epoch: 2026-06-01T23:41:02.780Z)
Latitude
-0.00011°
Longitude
157.80302°
Altitude
772.924 km
Speed
7.472 km/s
True Right ascension
02h 54m 07s
True Declination
0° 00' 00"
Sunlit
Object was in daylight at epoch
Visualization orbit readout
Latitude
Unknown
Longitude
Unknown
Altitude
Unknown
Speed
Unknown
Apparent Right ascension
Unknown
Apparent Declination
Unknown
Sunlit
N/A
Visualization observer readout
Local Sidereal Time
18:31:30
Azimuth
Unknown
Elevation
Unknown
Doppler factor
Unknown
Orbital elements
Apogee altitude
797.292 km
Perigee altitude
755.133 km
Semi-major axis
7,154.35 km
Eccentricity
0.00295
Inclination
82.8516°
RAAN
43.5309°
Arg. of periapsis
64.4207°
True anomaly
295.69815°
Mean anomaly
296.0021°
Eccentric anomaly
295.85018°
Mean motion
3.58664 °/min
Orbital period
100.37 mins
BSTAR
0.0020611
Loading maneuver chart data...
Computing Atmospheric mass density...

Documentation

Showing up to 5 results
|